カタログに戻る

COSMOS 1857

運用中軍事LEO
NORAD 18118·PAYLOAD·🇷🇺 Russia

打ち上げ Jun 16, 1987 から Plesetsk Cosmodrome

Loading…

次のパス (今後24時間)

TLE

最新Source: Space-Track

元期: Sep 14, 2026, 19:19 UTC

1 18118U 87051F   26257.80497972 -.00000023  00000-0 -40602-4 0  9991
2 18118  74.0057  31.7231 0038309  30.0111 330.3127 12.54275260797017

AllMySatでCOSMOS 1857をリアルタイム追跡

Download on the App Store